Dewpoint
72 74 73 74 74 75 75 75 75 74 75 75 75 75 75 74 73 74 74 74 74 74 76 76 76 76 75 75 74 75 75 74 75 75 75 75 74 74 74 73 73 72 73 72 69 69 70 69 68 69 69 68 67 65 65 66 66 64 65 65 63 65 64 64 62 63 63 63 61 60 63 63 65 66 65 65 67 65 67 66 67 62 64 64 65
72 73 74 73 74 74 74 74 75 75 75 75 75 74 74 74 75 75 74 74 75 74 76 75 75 76 74 75 76 75 76 76 74 74 75 74 74 73 73 73 73 73 73 73 71 69 70 69 68 69 69 69 66 65 64 64 64 62 64 64 63 64 65 64 63 62 62 65 63 63 63 63 63 66 65 63 64 67 65 65 66 64 64 64 62
69 73 73 73 74 74 74 74 74 75 73 73 72 72 73 74 74 74 73 72 75 75 75 75 76 76 76 75 76 76 76 75 75 74 75 75 74 74 74 73 73 72 72 73 72 71 70 70 68 68 69 68 67 65 64 65 64 64 65 65 65 64 66 66 65 63 63 62 64 64 64 65 63 65 65 64 65 65 65 65 64 64 64 64 62
68 71 72 72 73 73 74 73 72 72 72 72 71 71 71 73 74 73 73 72 73 75 75 75 76 77 76 76 76 76 76 75 74 74 75 75 75 75 75 74 73 73 73 73 71 71 70 70 67 67 68 69 68 66 65 65 65 65 65 66 66 65 66 67 66 65 64 63 65 63 63 65 64 65 66 65 64 65 64 66 65 63 64 65 66
67 69 70 70 70 72 72 72 71 72 71 71 71 71 71 71 72 73 72 72 72 74 75 75 76 77 76 76 76 77 76 76 74 73 74 75 75 75 76 76 75 75 74 73 72 72 70 69 67 67 69 68 68 66 66 67 66 65 65 65 66 65 65 67 67 66 65 65 64 66 65 65 64 66 66 65 65 65 68 66 66 67 66 64 63
66 68 69 69 71 71 71 71 70 71 70 71 70 70 70 70 70 72 72 72 73 73 75 75 75 76 77 76 76 77 77 76 75 74 73 73 75 76 76 76 75 75 74 73 72 72 71 70 68 67 68 68 68 67 68 67 67 66 66 66 66 67 67 67 67 67 66 65 66 64 67 64 65 65 66 66 64 65 67 68 68 67 67 67 64
67 67 68 68 70 71 70 71 72 70 71 71 70 70 69 68 69 70 72 72 72 72 74 76 76 76 77 77 76 77 77 76 75 75 74 75 75 76 75 76 75 74 74 73 71 71 70 70 69 68 68 69 67 67 68 68 67 67 67 66 67 67 66 67 68 67 67 66 65 65 64 65 65 65 68 67 67 65 64 64 65 66 68 68 68
67 68 69 69 70 69 70 72 73 72 72 73 72 71 71 71 71 71 73 73 72 72 73 75 75 75 76 76 77 77 77 76 75 75 74 74 75 76 75 75 74 74 74 73 72 70 70 69 68 68 69 69 68 68 69 69 69 68 67 67 67 67 66 65 67 66 66 66 64 63 64 64 65 65 68 69 67 66 66 64 63 63 65 68 68
67 67 68 70 71 72 72 73 73 73 73 73 73 73 72 73 73 72 73 73 73 73 73 74 75 75 75 76 76 76 76 75 74 74 74 74 74 74 75 75 74 74 74 73 72 71 70 69 68 67 70 69 68 68 67 68 69 68 68 68 68 67 66 65 66 66 66 65 65 65 63 64 64 65 65 66 64 63 66 67 65 64 64 64 66
68 68 68 70 72 73 73 74 74 74 74 74 74 74 73 74 73 73 73 73 74 74 74 74 74 74 75 75 76 76 75 76 71 64 67 74 74 74 75 75 75 74 74 73 72 72 70 69 70 68 68 67 67 67 67 67 67 67 68 69 68 68 67 66 66 66 66 65 63 64 64 63 62 64 64 66 66 67 65 66 64 64 66 65 65
67 68 69 70 72 73 74 74 75 75 75 74 75 75 74 74 74 74 74 74 75 75 74 74 73 74 74 74 74 75 75 74 66 63 64 66 73 75 74 75 75 74 74 74 73 72 72 71 71 70 69 68 69 66 66 66 66 66 67 68 67 68 67 65 65 66 65 64 64 63 62 62 63 65 65 64 65 65 65 66 65 64 63 63 61
66 70 69 72 73 74 74 75 75 75 75 75 75 75 75 74 74 74 74 74 75 75 74 74 75 74 74 74 73 74 75 68 64 63 63 64 67 74 74 74 74 74 74 73 73 73 72 71 71 71 70 69 69 70 68 65 64 64 64 66 66 66 66 67 66 65 66 65 64 63 63 63 64 65 64 61 64 65 66 65 65 64 64 62 61
67 71 71 72 74 75 76 75 76 76 76 75 76 76 75 75 75 74 74 75 75 75 75 75 75 74 74 75 73 73 73 66 63 62 63 63 64 69 74 74 73 73 73 74 73 73 73 72 72 71 71 67 67 69 70 69 63 63 63 65 66 65 64 64 66 68 67 66 64 63 63 64 64 66 66 64 66 65 66 64 66 65 64 61 59
68 71 72 73 74 76 76 75 75 76 76 76 76 76 75 75 75 75 74 75 75 75 74 74 74 75 74 74 75 74 74 66 62 60 61 62 63 66 73 74 74 73 74 73 73 73 74 73 72 72 72 71 70 69 70 70 68 67 67 67 66 67 65 63 64 67 69 66 66 65 66 67 66 66 68 67 67 65 64 63 65 63 62 61 62
69 71 72 73 74 75 75 75 75 76 76 76 76 76 75 75 75 75 73 74 74 74 74 73 73 74 73 72 72 73 72 65 60 59 59 60 62 63 73 73 74 74 74 74 74 73 74 73 73 72 72 72 70 69 70 70 69 67 67 65 65 65 66 64 63 63 64 62 64 66 66 68 68 68 70 68 67 67 67 66 65 63 63 63 61
68 70 72 72 73 75 75 75 75 75 75 75 75 75 75 76 75 75 74 73 74 73 73 74 73 72 72 72 72 72 71 63 59 59 59 59 60 68 73 73 73 74 74 74 74 74 74 74 74 73 72 72 68 63 67 71 70 69 68 67 66 65 64 65 62 62 64 63 63 63 63 65 66 71 70 66 68 68 66 63 63 62 61 60 57
69 71 73 72 73 74 74 74 74 74 75 75 75 74 75 75 75 75 74 73 73 73 74 72 72 71 72 73 72 72 71 66 58 57 58 58 61 71 72 72 73 73 73 73 73 73 73 74 74 73 72 73 66 61 63 66 70 70 70 69 67 65 65 65 64 62 62 60 59 60 60 60 59 58 59 62 71 65 63 60 60 57 59 57 55
70 72 72 72 72 74 74 74 74 74 75 75 75 74 74 75 75 75 74 73 72 72 73 73 73 72 72 72 71 71 71 67 57 56 57 57 63 71 72 71 72 72 73 72 72 72 72 69 72 73 73 73 61 59 61 66 70 70 69 67 67 66 65 64 64 66 60 60 60 60 61 61 61 61 61 60 60 63 62 59 56 53 55 54 52
69 70 71 72 73 74 74 74 74 74 75 74 74 74 74 74 74 75 74 74 73 73 73 72 72 72 70 70 66 69 71 67 56 56 56 56 63 72 72 71 72 71 72 71 72 72 72 69 66 69 71 71 58 58 59 63 69 70 69 68 67 66 66 65 65 65 66 66 67 66 66 64 68 68 66 62 63 63 61 60 55 53 51 51 47
70 70 71 71 73 73 74 75 75 75 75 75 75 75 74 74 74 74 74 73 73 72 71 71 72 71 70 71 70 71 70 72 67 56 56 55 58 72 72 70 71 71 71 71 71 72 71 71 69 61 62 60 56 56 57 59 68 70 69 68 68 66 66 66 66 65 67 65 66 66 66 67 66 66 64 62 59 60 58 57 56 54 53 50 49
70 71 72 71 71 74 74 75 75 75 75 75 74 73 74 74 74 74 73 72 73 73 72 70 70 70 70 71 70 71 71 71 73 54 55 54 56 62 71 71 72 72 71 71 70 70 70 70 70 62 58 56 55 54 55 56 61 70 70 68 68 68 65 65 67 66 66 67 66 65 65 65 64 63 61 59 56 55 54 56 54 53 52 50 47
71 72 73 72 71 73 74 75 75 75 75 76 76 74 74 75 74 74 72 73 74 73 73 72 70 70 71 70 72 72 69 66 72 56 55 54 55 57 69 71 71 72 72 72 71 70 70 70 71 65 57 55 54 53 53 55 58 69 70 61 61 60 68 66 66 66 65 65 63 64 64 62 61 61 58 55 51 52 51 54 52 51 50 49 51
73 73 74 72 73 74 75 75 75 75 75 75 75 75 74 74 75 75 75 75 74 74 74 73 71 71 71 71 72 73 73 73 63 65 54 54 53 56 60 67 64 74 71 70 71 70 71 71 71 61 56 54 52 52 53 54 56 65 59 59 56 59 64 65 65 64 63 63 64 64 63 61 61 58 55 53 52 55 52 54 53 52 54 52 53
74 74 74 74 73 73 74 74 75 75 76 75 75 75 75 75 75 75 75 74 73 72 72 73 72 71 70 71 70 71 73 73 66 61 61 53 54 54 56 59 61 69 71 71 72 70 70 71 70 55 53 51 51 52 53 54 60 56 56 55 58 61 67 66 65 64 64 63 63 63 63 61 58 56 53 55 52 58 56 55 56 54 56 54 56
74 73 73 73 73 73 73 75 75 75 75 75 75 74 75 75 74 76 75 74 72 72 72 72 72 72 70 72 71 71 72 73 74 68 58 54 54 54 55 58 59 59 70 71 72 71 65 61 56 52 53 52 52 52 53 53 55 55 54 56 60 66 67 65 64 64 64 63 63 63 62 61 58 55 57 58 58 58 58 55 55 56 56 57 57
73 73 73 73 74 73 74 74 75 75 74 74 75 75 75 74 73 74 73 71 73 73 72 71 70 72 71 72 71 72 73 73 73 74 61 57 56 55 56 57 59 59 62 69 65 63 60 57 54 54 53 55 58 60 61 60 55 56 56 58 66 66 65 65 65 65 64 63 62 61 60 59 55 57 59 59 59 57 57 56 55 54 55 55 54
73 73 73 73 74 74 73 71 71 73 74 73 73 74 74 74 74 73 73 72 72 72 72 71 71 70 70 71 72 72 72 72 73 74 68 65 64 62 59 60 57 59 63 69 66 69 62 61 61 57 57 56 58 58 60 58 59 59 61 63 66 66 66 66 65 65 65 63 61 60 59 57 56 58 59 59 59 57 57 57 55 55 54 53 53
73 73 73 73 73 74 74 73 72 70 71 72 71 71 73 73 73 73 72 72 72 71 71 71 70 70 70 70 71 72 72 72 72 72 69 66 66 66 64 63 64 64 66 69 71 72 67 58 58 63 61 61 62 61 62 62 62 62 63 64 65 65 64 64 64 65 64 62 61 60 58 57 57 59 59 58 55 55 57 57 56 54 52 53 52
75 74 73 74 73 74 73 73 71 71 72 73 72 73 72 71 72 73 73 73 72 70 71 70 71 71 70 70 71 71 71 71 72 65 72 61 66 66 65 65 65 66 64 63 71 68 66 64 64 63 63 62 62 62 62 61 62 62 63 64 64 64 65 64 64 63 64 64 61 59 55 55 57 58 55 53 55 56 58 57 57 55 54 51 49
72 72 72 72 71 72 71 69 70 70 70 70 72 72 70 64 71 75 72 68 64 62 61 70 70 69 69 70 71 70 70 71 63 59 59 56 56 57 59 58 59 63 61 59 65 67 65 64 64 63 62 62 62 62 61 61 62 63 64 61 64 64 65 64 64 63 64 64 60 56 56 56 56 54 52 53 55 56 57 55 57 56 54 50 49
70 71 71 70 69 72 71 71 72 73 72 70 71 70 69 74 60 59 62 65 63 59 53 55 57 59 71 72 70 63 61 60 58 57 55 54 54 54 55 55 55 56 56 62 67 66 65 64 63 63 63 62 62 62 62 62 62 63 64 64 64 66 64 64 63 63 62 62 58 57 57 55 53 53 52 53 55 55 56 55 55 55 52 50 48
70 70 70 70 70 70 70 70 71 72 73 73 73 72 72 72 73 67 58 56 55 52 51 51 51 52 53 56 60 70 65 58 54 53 52 53 53 53 53 53 53 53 53 57 66 66 65 64 62 63 63 62 62 62 62 63 63 64 64 64 65 64 63 63 63 63 62 60 57 57 55 52 52 54 52 52 54 53 53 53 52 52 50 48 48
69 68 68 69 68 68 68 69 69 69 68 69 68 69 68 67 68 69 75 61 53 52 52 50 48 48 49 49 49 51 54 55 52 50 50 51 51 51 52 52 51 51 53 60 66 65 65 64 63 63 63 63 62 62 62 62 63 63 64 64 64 64 64 65 63 63 61 58 56 53 53 51 52 53 52 52 52 52 51 51 51 51 49 48 47
69 68 67 67 67 67 67 67 66 66 66 67 67 67 66 67 66 67 66 66 68 66 54 48 48 49 48 48 51 52 52 52 52 52 49 50 50 51 51 55 50 49 55 63 65 64 65 64 64 64 63 63 63 62 62 63 63 63 63 63 63 63 63 64 63 61 57 55 54 52 52 52 52 53 52 52 52 51 50 50 50 49 48 47 47
68 67 66 66 66 66 66 66 65 65 65 66 65 64 65 65 65 64 64 63 63 64 64 69 60 50 63 59 54 50 48 49 50 51 50 49 50 50 50 58 54 53 56 64 65 65 64 64 63 63 63 63 63 63 64 64 64 64 63 63 63 62 63 62 60 59 57 55 53 52 52 52 52 53 54 52 50 50 50 50 49 49 48 47 46
68 67 66 66 67 66 66 67 66 66 66 65 66 64 63 63 62 62 62 64 63 63 63 64 65 59 55 51 49 47 47 47 47 47 48 48 49 49 56 58 56 56 58 63 65 64 64 64 63 63 64 63 63 64 65 65 65 65 65 64 63 63 63 61 60 59 58 55 52 52 51 53 53 53 52 51 52 51 50 50 46 46 47 46 46
65 66 65 66 66 66 66 66 66 66 63 64 64 65 64 63 63 62 62 63 64 63 63 65 65 64 60 62 59 52 48 47 46 46 46 47 48 53 60 60 59 59 60 63 64 64 64 64 64 64 64 64 64 65 65 65 65 65 62 65 64 63 62 62 60 59 58 54 53 54 55 53 53 54 52 50 49 50 49 48 47 46 47 44 44
65 64 64 66 66 66 66 65 64 63 66 65 65 65 63 64 63 61 62 64 62 62 62 62 60 61 61 63 62 59 57 51 49 46 44 44 50 55 61 62 61 61 61 64 64 64 64 64 64 64 64 64 64 65 64 65 65 65 64 65 64 64 60 60 59 60 58 54 53 54 55 54 54 53 52 50 50 49 47 48 45 44 43 41 42
67 62 61 62 63 64 64 64 64 64 65 64 63 62 61 60 60 59 62 63 63 62 62 62 62 61 62 62 62 60 57 59 59 59 59 57 56 56 59 62 62 62 63 64 63 63 64 64 64 65 65 65 65 65 65 65 65 65 64 65 64 64 62 61 61 59 56 54 55 56 55 54 53 51 51 49 48 47 46 45 43 42 41 41 39
63 65 63 62 62 63 63 64 63 62 63 63 62 62 61 60 60 60 60 61 63 63 61 61 62 62 61 60 58 57 58 58 59 58 57 56 56 57 58 61 62 62 63 64 64 64 64 64 64 64 64 65 65 65 64 64 64 63 64 64 62 60 60 60 59 58 55 55 56 56 54 54 54 53 50 47 47 47 46 45 43 43 42 41 42
65 65 64 62 62 63 64 62 63 63 62 62 62 62 61 62 63 60 59 60 61 61 61 61 61 62 60 55 48 49 56 60 60 59 57 56 57 59 60 61 62 63 63 63 63 63 63 63 63 64 64 65 65 65 64 64 64 63 62 61 60 59 59 59 58 56 55 55 56 55 54 53 51 49 48 47 46 46 45 44 45 41 41 41 38
65 64 64 64 65 63 62 64 64 65 65 64 63 61 62 61 60 60 60 60 60 60 60 60 61 62 58 50 50 48 60 64 62 61 59 61 63 62 62 63 64 63 63 63 63 63 63 63 63 64 64 64 64 64 64 64 64 63 61 60 59 57 56 56 56 56 56 55 55 53 52 51 49 48 49 46 45 46 46 44 42 42 40 39 39
64 64 64 65 64 64 63 63 64 63 63 64 63 62 61 61 61 61 59 60 60 59 60 61 61 62 63 56 58 54 63 63 62 64 64 63 62 61 61 62 63 63 63 63 63 63 63 63 63 64 64 64 64 63 64 63 63 62 60 58 57 56 56 55 55 55 54 54 52 52 51 49 49 47 47 45 44 44 44 45 43 41 41 41 41
62 62 62 63 63 64 64 63 63 63 63 62 62 62 63 62 60 60 60 60 59 59 58 59 60 61 61 59 60 60 61 61 62 62 63 62 61 61 61 62 62 62 62 62 62 63 63 63 63 64 64 64 64 64 64 63 62 61 59 58 56 55 55 55 54 54 53 51 50 50 49 49 49 47 45 46 46 45 44 44 43 41 40 40 39
60 61 60 60 61 62 62 63 62 63 62 62 63 62 62 61 61 60 59 59 59 59 59 58 58 58 59 61 61 61 61 61 62 61 61 61 61 61 61 61 61 61 61 61 62 62 63 63 63 63 63 63 63 63 63 63 61 60 58 57 55 54 53 54 54 53 51 51 49 49 48 48 47 45 45 46 45 46 45 44 45 45 42 41 40
58 58 57 58 59 59 59 60 61 62 61 61 61 62 61 61 61 60 60 60 59 59 59 59 58 59 60 60 60 60 61 61 61 61 61 62 62 61 61 61 61 61 62 62 62 62 63 63 62 62 62 62 63 63 62 61 59 58 57 56 54 53 53 53 53 51 50 50 48 48 47 47 47 46 47 45 44 44 44 45 45 43 42 41 40
58 57 56 56 56 57 58 59 58 59 59 59 60 60 60 61 60 59 59 58 58 59 59 59 58 57 58 59 58 59 60 60 61 61 61 62 62 62 62 62 62 61 62 62 62 62 62 62 62 62 63 63 63 62 60 58 57 56 56 54 54 53 53 51 50 50 50 49 49 47 47 46 47 47 45 45 45 44 46 45 43 44 43 41 40
56 56 56 56 55 56 56 57 57 57 57 57 58 57 58 59 59 58 59 58 58 58 58 59 60 60 60 60 60 60 60 60 60 61 61 61 61 62 63 63 62 63 63 63 64 64 64 64 64 64 63 62 61 60 59 58 56 55 54 54 54 53 52 50 52 51 50 50 49 49 48 47 46 46 46 46 45 44 44 43 42 41 42 41 40
54 54 55 55 55 56 56 56 56 56 57 57 57 56 56 57 56 56 57 57 57 57 57 58 58 59 60 60 60 59 60 61 61 62 60 61 61 61 62 62 61 61 62 62 62 62 63 62 62 61 61 61 60 59 57 57 55 55 54 54 53 46 44 45 48 51 47 50 49 49 49 48 48 48 49 48 47 45 44 44 43 42 40 40 39
51 52 52 52 53 54 56 56 56 56 57 57 57 57 57 58 57 57 57 57 56 56 57 57 58 59 60 59 59 59 60 60 61 61 61 60 61 60 60 60 60 60 61 61 61 61 60 61 61 60 60 60 59 59 57 56 55 54 54 57 45 44 44 45 46 47 49 51 50 50 49 49 49 48 47 48 48 46 45 43 43 42 39 39 38
50 49 49 49 50 51 52 53 54 55 56 56 55 55 54 55 56 57 57 57 56 56 56 57 57 58 59 59 59 59 60 60 60 60 61 62 62 63 62 60 60 60 60 60 60 60 60 60 59 60 59 59 58 57 57 56 55 55 50 43 42 43 43 46 52 43 44 46 52 49 49 49 49 48 47 47 46 45 45 43 42 40 39 37 37